Regional Weather Roundup
Issued by NWS

Home | Current Version | Previous Version | Graphics & Text | Print | Product List | Glossary On
Versions: 1 2 3 4 5 6 7 8 9 10 11 12 13 14 15 16 17 18 19 20 21 22 23 24 25 26 27 28 29 30 31 32 33 34 35 36 37 38 39 40 41 42 43 44 45 46 47 48 49 50
609
ASUS43 KMKX 171721
RWRWI

WISCONSIN REGIONAL WEATHER ROUNDUP
NATIONAL WEATHER SERVICE MILWAUKEE/SULLIVAN WI
1200 PM CDT TUE OCT 17 2017

NOTE: "FAIR" INDICATES FEW OR NO CLOUDS BELOW 12,000 FEET WITH NO
SIGNIFICANT WEATHER AND/OR OBSTRUCTIONS TO VISIBILITY.

WIZ001-002-006>008-014>016-023>028-171800-
NORTHWEST WISCONSIN

CITY           SKY/WX    TMP DP  RH WIND       PRES   REMARKS
SUPERIOR ARPT  SUNNY     64  43  46 SW8       29.97F
ASHLAND        MOSUNNY   68  41  37 SW10      29.98F
HAYWARD        SUNNY     63  41  44 S7        30.01F
SIREN          SUNNY     63  41  45 CALM      30.01S
CUMBERLAND       N/A    N/A N/A N/A MISG        N/A
RICE LAKE      SUNNY     63  44  50 E5        30.03F
CHETEK         SUNNY     61  48  61 SE3       30.03S
LADYSMITH      SUNNY     62  44  52 S3        30.05S
EAU CLAIRE     SUNNY     61  44  53 S6        30.03F
MENOMONIE      SUNNY     63  46  53 SE6       30.03F
NEW RICHMOND   SUNNY     63  43  48 S7        30.02F
OSCEOLA        SUNNY     62  45  52 S8        30.03F
$$

WIZ003>005-009-010-017-018-171800-
NORTH CENTRAL WISCONSIN

CITY           SKY/WX    TMP DP  RH WIND       PRES   REMARKS
MANITOWISH WTR SUNNY     63  41  45 SW6       30.01F
ARBOR VITAE    SUNNY     62  44  50 S5        30.02S
WOODRUFF       SUNNY     62  44  50 S5        30.02S
RHINELANDER    SUNNY     62  41  46 SW5       30.04S
EAGLE RIVER    SUNNY     60  38  43 W7        30.02S
LAND O LAKES   SUNNY     65  38  37 W7        30.02S
PHILLIPS       SUNNY     61  44  53 SW7       30.03S
TOMAHAWK       SUNNY     62  41  46 S3        30.04S
MEDFORD        SUNNY     62  44  51 S6        30.05R
MERRILL        SUNNY     62  44  51 W3        30.05S
$$

WIZ029-030-035-036-043>047-171800-
CENTRAL WISCONSIN

CITY           SKY/WX    TMP DP  RH WIND       PRES   REMARKS
WAUSAU         SUNNY     60  44  55 VRB3      30.04S
MOSINEE        MOSUNNY   61  45  55 SW3       30.07R
MARSHFIELD     SUNNY     62  43  49 SW8       30.05S
STEVENS POINT  SUNNY     60  43  53 W6        30.06S
WAUPACA        SUNNY     65  45  46 SW6       30.06F
WAUTOMA        SUNNY     64  46  52 SW6       30.08S
WISC RAPIDS    SUNNY     62  45  53 SW8       30.07F
CAMP DOUGLAS   MOSUNNY   63  45  51 W5        30.07S
$$

WIZ011>013-019>022-031-037>040-048>050-171800-
NORTHEAST WISCONSIN

CITY           SKY/WX    TMP DP  RH WIND       PRES   REMARKS
ANTIGO         SUNNY     61  44  53 W3        30.05S
SHAWANO        SUNNY     64  44  48 W7        30.05R
OCONTO         SUNNY     63  44  48 W9        30.03F
STURGEON BAY   SUNNY     61  44  53 MISG      30.03S
GREEN BAY      SUNNY     62  47  57 SW7       30.06S
MANITOWOC      SUNNY     61  45  55 W10       30.07R
APPLETON       SUNNY     61  39  44 SW9       30.06R
CLINTONVILLE   SUNNY     64  43  45 W6        30.05S
OSHKOSH        SUNNY     62  46  55 SW10      30.07S
$$

WIZ032>034-041-042-053>061-171800-
SOUTHWEST WISCONSIN

CITY           SKY/WX    TMP DP  RH WIND       PRES   REMARKS
LA CROSSE      SUNNY     62  45  53 VRB6      30.08S
SPARTA         SUNNY     62  45  54 S5        30.09R
VIROQUA        SUNNY     61  45  56 S9        30.09F
BOSCOBEL       SUNNY     65  43  44 SW7       30.11S
PRAIRIE DU CHI SUNNY     64  42  44 S6        30.11S
PLATTEVILLE    SUNNY     64  45  48 SW12G17   30.14S
$$

WIZ056-057-062-063-064-067-068-171800-
SOUTH CENTRAL WISCONSIN

CITY           SKY/WX    TMP DP  RH WIND       PRES   REMARKS
REEDSBURG      SUNNY     62  46  54 SW7       30.09S
BARABOO/DELLS  SUNNY     62  44  51 W10       30.09S
LONE ROCK      SUNNY     64  46  52 SW9       30.11S
MINERAL POINT  SUNNY     64  43  45 SW10      30.12S
MADISON        MOSUNNY   63  44  50 SW8       30.11S
MIDDLETON      SUNNY     65  44  47 SW10      30.11F
WATERTOWN      SUNNY     64  44  48 W8        30.11S
MONROE         SUNNY     63  41  45 SW18      30.13S
JANESVILLE     MOSUNNY   66  43  42 W15G22    30.13S
$$

WIZ051-052-058>065-066-070>072-171800-
SOUTHEAST WISCONSIN

CITY           SKY/WX    TMP DP  RH WIND       PRES   REMARKS
MILWAUKEE      MOSUNNY   67  42  40 SW16G25   30.12S
WAUKESHA       SUNNY     63  43  48 W13       30.13S
MILWAUKEE/TIMM SUNNY     64  39  39 W14       30.11S
RACINE         SUNNY     67  43  41 SW16G24   30.13S
BURLINGTON     SUNNY     68  44  41 SW15G24   30.13S
KENOSHA        SUNNY     68  43  40 W16G25    30.13F
FOND DU LAC    SUNNY     64  43  46 W9        30.09S
SHEBOYGAN      SUNNY     64  47  53 W12       30.07S
WEST BEND      SUNNY     63  41  45 W10       30.10S
JUNEAU         SUNNY     61  44  53 SW13      30.11F
$$

LSZ147-162-171800-
LAKE SUPERIOR

STATION/POSITION TIME  TEMP    WIND        PRES    WAVE
                       AIR SEA DIR/SP/G            HT/PER
                 (UTC) (F)     (DEG/KT/KT) (MB)    (FT/S)
W MID LAKE BUOY  1650   53 53              1014.5F   2/ 4
DEVILS ISLAND    1700   54     230/ 11/ 12 1015.1S
SAXON HARBOR     1630   65     210/  6/ 11 1014.9S
$$

LMZ867-665-643>646-171800-
LAKE MICHIGAN

STATION/POSITION TIME  TEMP    WIND        PRES    WAVE
                       AIR SEA DIR/SP/G            HT/PER
                 (UTC) (F)     (DEG/KT/KT) (MB)    (FT/S)
S GREEN BAY BUOY 1700   58 58  220/ 12/ 14 1016.8
N MID LAKE BUOY  1650   56 59  240/ 12/ 14 1017.1R   5/ 7
NORTHPORT PIER   1640   60     270/  5/ 10 1016.3R
KEWAUNEE LAKESHO 1654   62     260/  9/ 12 1016.5R
SHEBOYGAN LAKESH 1700   62     260/ 11/ 12 1018.2R
PORT WASHINGTON  1640   64     250/ 10/ 15 1019.6S
MILWAUKEE LAKESH 1650   64     270/ 12/ 13   N/A
S MID LAKE BUOY  1650   60 61  250/ 21/ 25 1020.4F   5/ 6
KENOSHA   LAKESH 1700   66     240/ 13/ 18 1020.3
$$

TC  - TEMPERATURE IN CELSIUS
VSB - VISIBILITY IN STATUTE MILES
WCI - WIND CHILL INDEX
HX  - HEAT INDEX





USA.gov is the U.S. government's official web portal to all federal, state and local government web resources and services.